Location: La Chapelle
(48.3135°N, 1.3085°W)
Time: 11:00:05
(UTC+00:00)

Cosmos 2278 Rocket - Pass Details

Date: 03 March 2021
Orbit: 841 x 845 km, 71.0° (Epoch: 10 April)

Event Time Altitude Azimuth Distance (km) Brightness Sun altitude
Rises 22:07:24 0° 322° (NW) 3,414 6.2 -39.9°
Reaches altitude 10° 22:10:19 10° 309° (NW) 2,473 5.3 -40.3°
Enters shadow 22:12:40 19° 287° (WNW) 1,902 4.4 -40.5°
